Location: Unspecified
(43.3830°N, 0.0000°E)
Time: 03:11:00
(UTC+00:00)

Vanguard 2 - Pass Details

Date: 21 June 2019
Orbit: 553 x 2938 km, 32.9° (Epoch: 16 July)

Event Time Altitude Azimuth Distance (km) Brightness Sun altitude
Rises 16:06:42 0° 261° (W) 5,638 12.9 36.5°
Reaches altitude 10° 16:15:31 10° 229° (SW) 5,248 12.6 34.9°
Maximum altitude 16:18:16 11° 219° (SW) 5,335 12.4 34.4°
Drops below altitude 10° 16:21:09 10° 209° (SSW) 5,518 12.3 33.8°
Sets 16:32:03 0° 178° (S) 6,776 12.3 31.9°
